Погода в Лаврово

Россия / Костромская область     57°28′35″N   40°31′59″E
темп.,
°C
ветер,
м/с
пор.,
м/с
влажн.,
%
обл.,
%
осадки,
мм/ч
давл.,
гПа
погр.,
м
9 марта, вт
вт900:00−15ссз369683 0.1 100892
03:00−19ссз469861 0.1 101194
06:00−22ссз349976 0.0 101367
09:00−20с469672 0.0 1015246
12:00−17ссз469278 0.0 1016381
15:00−15ссз468989 0.1 1017594
18:00−17ссз4894100 0.1 1019212
21:00−21с4798100 0.1 1021132
10 марта, ср
ср1000:00−24с469878 0.0 102293
03:00−27с449842 0.0 102476
06:00−29с34980 0.0 102676
09:00−25с46950 0.0 1028222
12:00−19ссз35842 0.0 1028351
15:00−15зсз46851 0.0 1027494
18:00−18сз5108838 0.0 1027234
21:00−21сз469760 0.0 102987
11 марта, чт
чт1100:00−22сз349968 0.0 103035
03:00−22сз339944 0.0 103127
06:00−23зсз34995 0.0 103129
09:00−19зсз359614 0.0 1032176
12:00−13зсз349072 0.0 1031313
15:00−10зсз349086 0.0 1031416
18:00−13зюз339496 0.0 103025
21:00−16зюз349669 0.0 103131
12 марта, пт
пт1200:00−17юз34950 0.0 103154
03:00−18юз47930 0.0 1030109
06:00−19юз49910 0.0 1030137
09:00−16юз510790 0.0 1029286
12:00−11ююз610730 0.0 1029450
15:00−9ююз711770 0.0 1027591
18:00−11ю512830 0.0 1026326
21:00−13ю715840 0.0 1026364
13 марта, сб
сб1300:00−15ю716850 0.0 1026354
03:00−15ю715850 0.0 1025405
06:00−15ю717855 0.0 1023441
09:00−11ю9168652 0.0 1021699
12:00−8ю91491100 0.3 1020903
15:00−6ю81391100 0.6 1018921
18:00−5ююз71392100 0.7 1017738
21:00−5ююз8149099 0.8 1017503